Tracking 19293 objects as of 20-Nov-2018
HD Live streaming from Space Station
objects crossing your sky now

COSMOS 962

Track COSMOS 962 now!
10-day predictions
COSMOS 962 is classified as:


NORAD ID: 10459
Int'l Code: 1977-107A
Perigee: 970.0 km
Apogee: 1,010.0 km
Inclination: 83.0 °
Period: 104.8 minutes
Semi major axis: 7360 km
RCS: 1.6429 m2 (large)
Launch date: October 28, 1977
Source: Commonwealth of Independent States (former USSR) (CIS)
Launch site: PLESETSK MISSILE AND SPACE COMPLEX (PKMTR)
aabbcc
Your satellite tracking list
Your tracking list is empty




NASA's NSSDC Master Catalog

Two Line Element Set (TLE):
1 10459U 77107A   18324.24530976  .00000056  00000-0  42869-4 0  9999
2 10459  82.9532  25.4014 0027155 265.8816 153.3609 13.74677596 59648
Source of the keplerian elements: AFSPC